Time,TemperatureF,DewpointF,PressureIn,WindDirection,WindDirectionDegrees,WindSpeedMPH,WindSpeedGustMPH,Humidity,HourlyPrecipIn,Conditions,Clouds,dailyrainin,SoftwareType,DateUTC
2013-12-06 00:01:00,16.0,0.0,-100.00,SSE,165,1.0,3.0,48,-99.99,,,-99.99,,2013-12-06 08:01:00,
2013-12-06 00:12:00,16.0,0.0,-100.00,SSE,165,1.0,3.0,48,-99.99,,,-99.99,,2013-12-06 08:12:00,
2013-12-06 00:22:00,16.0,0.0,-100.00,SSE,165,1.0,3.0,48,-99.99,,,-99.99,,2013-12-06 08:22:00,
2013-12-06 00:42:00,16.0,-2.0,-100.00,ENE,72,2.0,4.0,44,-99.99,,,-99.99,,2013-12-06 08:42:00,
2013-12-06 00:52:00,16.0,-2.0,-100.00,ENE,72,2.0,4.0,44,-99.99,,,-99.99,,2013-12-06 08:52:00,
2013-12-06 01:02:00,16.0,-2.0,-100.00,ENE,72,2.0,4.0,44,-99.99,,,-99.99,,2013-12-06 09:02:00,
2013-12-06 01:22:00,15.0,-2.0,-100.00,SE,128,0.0,1.0,46,-99.99,,,-99.99,,2013-12-06 09:22:00,
2013-12-06 01:43:00,15.0,-4.0,-100.00,SE,137,0.0,1.0,42,-99.99,,,-99.99,,2013-12-06 09:43:00,
2013-12-06 02:13:00,14.0,-6.0,-100.00,ENE,75,1.0,3.0,40,-99.99,,,-99.99,,2013-12-06 10:13:00,
2013-12-06 02:23:00,14.0,-6.0,-100.00,ENE,75,1.0,3.0,40,-99.99,,,-99.99,,2013-12-06 10:23:00,
2013-12-06 02:43:00,16.0,-9.0,-100.00,ENE,61,2.0,4.0,31,-99.99,,,-99.99,,2013-12-06 10:43:00,
2013-12-06 03:12:00,15.0,-9.0,-100.00,East,83,2.0,5.0,32,-99.99,,,-99.99,,2013-12-06 11:12:00,
2013-12-06 03:22:00,15.0,-9.0,-100.00,East,83,2.0,5.0,32,-99.99,,,-99.99,,2013-12-06 11:22:00,
2013-12-06 03:42:00,14.0,-9.0,-100.00,SSW,196,0.0,1.0,34,-99.99,,,-99.99,,2013-12-06 11:42:00,
2013-12-06 03:53:00,16.0,-11.0,-100.00,SSE,162,2.0,3.0,29,-99.99,,,-99.99,,2013-12-06 11:53:00,
2013-12-06 04:02:00,16.0,-11.0,-100.00,SSE,162,2.0,3.0,29,-99.99,,,-99.99,,2013-12-06 12:02:00,
2013-12-06 04:12:00,16.0,-11.0,-100.00,SSE,162,2.0,3.0,29,-99.99,,,-99.99,,2013-12-06 12:12:00,
2013-12-06 04:21:00,16.0,-10.0,-100.00,SSE,150,1.0,2.0,30,-99.99,,,-99.99,,2013-12-06 12:21:00,
2013-12-06 04:42:00,17.0,-8.0,-100.00,SE,141,0.0,2.0,32,-99.99,,,-99.99,,2013-12-06 12:42:00,
2013-12-06 04:52:00,17.0,-8.0,-100.00,SE,141,0.0,2.0,32,-99.99,,,-99.99,,2013-12-06 12:52:00,
2013-12-06 05:01:00,17.0,-8.0,-100.00,SE,141,0.0,2.0,32,-99.99,,,-99.99,,2013-12-06 13:01:00,
2013-12-06 05:11:00,17.0,-8.0,-100.00,SE,141,0.0,2.0,32,-99.99,,,-99.99,,2013-12-06 13:11:00,
2013-12-06 06:22:00,19.0,-16.0,-100.00,East,86,3.0,10.0,19,-99.99,,,-99.99,,2013-12-06 14:22:00,
2013-12-06 06:42:00,15.0,-12.0,-100.00,South,189,1.0,2.0,28,-99.99,,,-99.99,,2013-12-06 14:42:00,
2013-12-06 06:52:00,15.0,-12.0,-100.00,South,189,1.0,2.0,28,-99.99,,,-99.99,,2013-12-06 14:52:00,
2013-12-06 07:22:00,17.0,-14.0,-100.00,NE,55,3.0,5.0,23,-99.99,,,-99.99,,2013-12-06 15:22:00,
2013-12-06 07:33:00,17.0,-14.0,-100.00,NE,55,3.0,5.0,23,-99.99,,,-99.99,,2013-12-06 15:33:00,
2013-12-06 07:41:00,16.0,-10.0,-100.00,ESE,114,1.0,5.0,30,-99.99,,,-99.99,,2013-12-06 15:41:00,
2013-12-06 07:44:00,17.0,-14.0,-100.00,NE,55,3.0,5.0,23,-99.99,,,-99.99,,2013-12-06 15:44:00,
2013-12-06 07:54:00,15.0,-10.0,-100.00,East,92,1.0,3.0,31,-99.99,,,-99.99,,2013-12-06 15:54:00,
2013-12-06 08:03:00,15.0,-10.0,-100.00,East,92,1.0,3.0,31,-99.99,,,-99.99,,2013-12-06 16:03:00,
2013-12-06 08:24:00,16.0,-10.0,-100.00,ESE,114,1.0,5.0,30,-99.99,,,-99.99,,2013-12-06 16:24:00,
2013-12-06 08:33:00,16.0,-10.0,-100.00,ESE,114,1.0,5.0,30,-99.99,,,-99.99,,2013-12-06 16:33:00,
2013-12-06 09:43:00,20.0,-15.0,-100.00,East,85,3.0,6.0,20,-99.99,,,-99.99,,2013-12-06 17:43:00,
2013-12-06 10:12:00,22.0,-16.0,-100.00,ENE,75,2.0,4.0,17,-99.99,,,-99.99,,2013-12-06 18:12:00,
2013-12-06 10:52:00,26.0,-12.0,-100.00,NE,38,3.0,5.0,18,-99.99,,,-99.99,,2013-12-06 18:52:00,
2013-12-06 11:02:00,26.0,-12.0,-100.00,NE,38,3.0,5.0,18,-99.99,,,-99.99,,2013-12-06 19:02:00,
2013-12-06 11:21:00,27.0,-11.0,-100.00,NE,48,4.0,7.0,18,-99.99,,,-99.99,,2013-12-06 19:21:00,
2013-12-06 11:42:00,28.0,-10.0,-100.00,NE,40,3.0,8.0,18,-99.99,,,-99.99,,2013-12-06 19:42:00,
2013-12-06 12:11:00,28.0,-8.0,-100.00,NE,34,3.0,8.0,20,-99.99,,,-99.99,,2013-12-06 20:11:00,
2013-12-06 12:22:00,28.0,-8.0,-100.00,NE,34,3.0,8.0,20,-99.99,,,-99.99,,2013-12-06 20:22:00,
2013-12-06 12:42:00,28.0,-8.0,-100.00,NE,48,5.0,7.0,20,-99.99,,,-99.99,,2013-12-06 20:42:00,
2013-12-06 13:11:00,28.0,-9.0,-100.00,NNE,17,5.0,8.0,19,-99.99,,,-99.99,,2013-12-06 21:11:00,
2013-12-06 13:21:00,30.0,-5.0,-100.00,NE,47,6.0,11.0,21,-99.99,,,-99.99,,2013-12-06 21:21:00,
2013-12-06 13:33:00,30.0,-5.0,-100.00,NE,47,6.0,11.0,21,-99.99,,,-99.99,,2013-12-06 21:33:00,
2013-12-06 13:43:00,30.0,-5.0,-100.00,NE,47,6.0,11.0,21,-99.99,,,-99.99,,2013-12-06 21:43:00,
2013-12-06 13:54:00,29.0,-3.0,-100.00,NE,47,5.0,9.0,24,-99.99,,,-99.99,,2013-12-06 21:54:00,
2013-12-06 14:03:00,29.0,-3.0,-100.00,NE,47,5.0,9.0,24,-99.99,,,-99.99,,2013-12-06 22:03:00,
2013-12-06 14:23:00,29.0,-3.0,-100.00,NE,38,3.0,11.0,24,-99.99,,,-99.99,,2013-12-06 22:23:00,
2013-12-06 14:42:00,28.0,-2.0,-100.00,ENE,61,5.0,9.0,26,-99.99,,,-99.99,,2013-12-06 22:42:00,
2013-12-06 15:12:00,28.0,-2.0,-100.00,ENE,58,5.0,9.0,27,-99.99,,,-99.99,,2013-12-06 23:12:00,
2013-12-06 15:22:00,28.0,-2.0,-100.00,ENE,58,5.0,9.0,27,-99.99,,,-99.99,,2013-12-06 23:22:00,
2013-12-06 15:42:00,27.0,-2.0,-100.00,NE,54,4.0,8.0,28,-99.99,,,-99.99,,2013-12-06 23:42:00,
2013-12-06 16:11:00,27.0,2.0,-100.00,NE,45,5.0,9.0,33,-99.99,,,-99.99,,2013-12-07 00:11:00,
2013-12-06 16:21:00,26.0,1.0,-100.00,NE,47,5.0,11.0,33,-99.99,,,-99.99,,2013-12-07 00:21:00,
2013-12-06 16:32:00,26.0,1.0,-100.00,NE,47,5.0,11.0,33,-99.99,,,-99.99,,2013-12-07 00:32:00,
2013-12-06 16:40:00,23.0,3.0,-100.00,NE,47,6.0,11.0,41,-99.99,,,-99.99,,2013-12-07 00:40:00,
2013-12-06 16:42:00,26.0,1.0,-100.00,NE,47,5.0,11.0,33,-99.99,,,-99.99,,2013-12-07 00:42:00,
2013-12-06 16:52:00,24.0,4.0,-100.00,NE,38,6.0,10.0,41,-99.99,,,-99.99,,2013-12-07 00:52:00,
2013-12-06 17:02:00,24.0,4.0,-100.00,NE,38,6.0,10.0,41,-99.99,,,-99.99,,2013-12-07 01:02:00,
2013-12-06 17:22:00,23.0,3.0,-100.00,NE,47,6.0,11.0,41,-99.99,,,-99.99,,2013-12-07 01:22:00,
2013-12-06 17:32:00,23.0,3.0,-100.00,NE,47,6.0,11.0,41,-99.99,,,-99.99,,2013-12-07 01:32:00,
2013-12-06 18:11:00,22.0,6.0,-100.00,NE,45,5.0,8.0,49,-99.99,,,-99.99,,2013-12-07 02:11:00,
2013-12-06 18:21:00,22.0,6.0,-100.00,NE,45,5.0,8.0,49,-99.99,,,-99.99,,2013-12-07 02:21:00,
2013-12-06 18:52:00,19.0,9.0,-100.00,ENE,72,4.0,8.0,63,-99.99,,,-99.99,,2013-12-07 02:52:00,
2013-12-06 19:02:00,19.0,9.0,-100.00,ENE,72,4.0,8.0,63,-99.99,,,-99.99,,2013-12-07 03:02:00,
2013-12-06 19:11:00,19.0,9.0,-100.00,ENE,72,4.0,8.0,63,-99.99,,,-99.99,,2013-12-07 03:11:00,
2013-12-06 19:22:00,19.0,10.0,-100.00,NE,55,5.0,7.0,67,-99.99,,,-99.99,,2013-12-07 03:22:00,
2013-12-06 19:33:00,19.0,10.0,-100.00,NE,55,5.0,7.0,67,-99.99,,,-99.99,,2013-12-07 03:33:00,
2013-12-06 19:53:00,19.0,11.0,-100.00,NE,49,4.0,7.0,70,-99.99,,,-99.99,,2013-12-07 03:53:00,
2013-12-06 20:03:00,19.0,11.0,-100.00,NE,49,4.0,7.0,70,-99.99,,,-99.99,,2013-12-07 04:03:00,
2013-12-06 20:23:00,20.0,13.0,-100.00,ENE,68,4.0,6.0,74,-99.99,,,-99.99,,2013-12-07 04:23:00,
2013-12-06 20:43:00,20.0,14.0,-100.00,NE,47,3.0,5.0,76,-99.99,,,-99.99,,2013-12-07 04:43:00,
2013-12-06 21:12:00,20.0,14.0,-100.00,NE,56,6.0,8.0,77,-99.99,,,-99.99,,2013-12-07 05:12:00,
2013-12-06 21:43:00,20.0,14.0,-100.00,ENE,69,3.0,7.0,77,-99.99,,,-99.99,,2013-12-07 05:43:00,
2013-12-06 21:53:00,20.0,14.0,-100.00,ENE,69,3.0,7.0,77,-99.99,,,-99.99,,2013-12-07 05:53:00,